Wind_Speed
30 30 29 30 29 29 28 28 27 27 27 27 26 26 26 26 27 27 26 26 25 25 24 24 24 24 24 24 24 24 24 23 23 23 22 22 22 23 23 22 22 22 21
31 31 31 31 31 30 30 29 29 28 28 28 29 28 28 28 28 29 28 28 27 27 26 26 26 25 26 26 25 26 25 25 25 25 24 24 23 24 24 24 24 24 24
33 32 32 32 32 32 32 31 31 30 30 30 30 30 30 30 30 30 30 30 30 29 29 28 28 28 28 27 27 27 27 27 27 27 26 26 25 25 25 26 26 26 26
34 34 34 34 34 34 34 33 33 33 32 32 32 32 32 32 32 32 32 32 31 31 30 30 30 30 30 30 30 30 29 28 28 28 28 28 28 27 27 27 27 27 27
36 36 36 36 36 35 35 34 34 34 34 34 34 34 34 34 34 34 34 34 33 33 33 33 32 32 32 32 32 32 31 31 30 30 30 30 29 29 28 28 28 29 29
38 37 37 37 37 37 37 37 36 36 36 36 36 36 36 36 36 36 36 36 36 36 36 36 35 35 35 35 35 34 34 34 33 33 32 32 31 30 30 30 30 30 31
39 39 39 39 39 39 39 39 38 38 38 39 39 38 38 38 38 38 38 38 37 37 37 38 37 37 37 37 37 36 36 36 35 35 34 34 33 33 33 33 32 32 32
41 41 41 40 41 41 40 40 40 40 40 40 40 40 40 39 39 39 39 38 39 39 39 39 39 39 39 39 38 38 38 38 38 37 37 36 36 36 36 35 35 35 35
43 43 43 43 43 42 42 42 42 42 42 41 41 41 41 41 40 40 40 40 41 41 40 40 41 41 41 41 40 40 40 39 39 39 40 39 39 39 38 38 37 37 37
45 45 45 44 44 44 44 44 44 44 44 44 43 42 43 43 42 42 42 42 42 42 42 42 43 43 42 43 43 42 42 42 42 42 41 41 41 41 41 40 39 39 39
46 46 46 45 46 46 46 46 46 46 46 45 45 45 45 45 45 45 44 44 44 44 43 43 44 45 45 44 45 44 44 44 43 43 43 43 43 42 42 42 42 41 41
47 47 47 46 47 47 47 48 47 47 48 47 47 46 46 46 46 46 46 46 45 45 45 45 45 46 46 46 46 46 46 45 45 45 45 45 45 45 44 44 44 44 43
48 48 48 48 48 48 48 48 47 48 48 49 48 48 48 48 48 48 48 48 47 47 47 47 47 47 47 47 47 47 47 47 47 47 47 46 46 47 46 46 46 45 45
50 50 50 49 49 49 49 49 48 49 50 50 50 49 49 49 49 49 50 50 49 48 48 47 48 48 48 48 48 48 48 48 48 48 48 48 48 48 48 47 47 46 46
51 51 51 50 49 49 50 50 50 50 51 51 51 51 51 51 51 50 50 51 50 50 49 48 48 48 48 49 49 50 50 50 49 49 50 49 49 49 49 49 48 48 48
52 50 51 51 50 50 50 51 52 51 52 52 52 52 52 52 51 51 51 51 51 51 50 49 49 49 49 49 50 51 51 51 51 50 50 50 50 50 50 50 50 49 49
52 51 51 51 52 52 52 51 52 52 52 51 52 52 52 52 52 52 52 52 52 52 52 51 50 50 50 49 50 51 52 52 52 51 51 51 52 51 51 51 51 51 50
52 52 52 52 52 52 52 53 52 51 52 52 52 51 51 51 51 51 52 52 52 52 52 51 51 51 50 51 51 51 52 53 53 53 53 53 53 52 52 52 52 51 51
52 52 52 53 53 52 52 53 53 53 52 52 52 51 51 51 51 51 51 51 51 51 52 52 51 51 50 51 51 52 52 52 53 53 53 53 53 53 53 53 53 53 52
52 52 51 52 52 52 52 52 52 53 53 53 53 52 51 51 51 51 51 51 51 51 51 51 50 50 50 51 52 52 51 52 52 53 54 54 54 54 54 54 53 53 53
50 51 51 51 51 52 51 51 51 51 52 51 51 51 51 51 51 51 51 51 50 50 50 50 50 50 50 51 52 52 52 52 52 53 54 54 54 54 54 54 54 54 53
51 51 51 52 51 51 51 51 51 50 50 50 50 50 50 50 50 51 51 50 51 50 51 51 51 50 50 51 52 52 52 52 52 53 54 54 54 54 54 54 54 54 53
51 51 51 52 52 51 50 50 50 50 49 49 49 49 49 49 50 49 49 50 49 50 51 52 51 51 51 51 51 51 51 52 51 52 53 53 53 53 53 53 54 54 53
49 51 50 50 51 50 50 50 49 48 48 47 48 48 48 48 48 48 49 49 49 49 49 51 50 50 49 49 50 51 51 52 51 52 53 52 52 53 53 52 53 53 53
48 48 49 49 49 49 50 49 48 48 47 47 47 48 48 48 48 48 49 50 50 50 49 49 49 49 49 49 50 51 51 52 52 52 52 52 53 53 53 52 53 54 54
47 47 47 48 48 48 48 48 48 48 48 47 48 48 48 49 49 49 49 49 49 50 50 50 50 51 50 51 52 52 52 53 52 52 53 53 53 53 53 53 53 54 54
Wind_Direction
253 253 254 255 255 256 256 257 258 258 258 256 256 257 258 259 259 257 258 258 258 260 261 262 262 263 264 266 267 267 268 268 269 270 271 274 275 276 273 273 274 276 277
254 254 254 256 256 256 257 257 257 257 257 257 257 257 258 259 259 257 258 258 258 259 261 262 263 263 264 265 266 267 268 269 268 269 270 272 273 274 273 272 274 275 276
255 255 255 256 255 256 257 257 258 258 258 258 258 259 259 259 260 259 259 260 260 260 261 261 262 263 263 263 264 266 267 268 268 269 269 271 271 272 274 273 273 274 275
255 256 256 256 256 257 257 257 258 259 259 259 259 259 260 260 260 260 260 261 260 260 261 261 262 262 263 263 264 265 266 267 268 269 270 269 269 271 273 274 273 273 274
254 255 257 256 256 257 257 258 258 258 258 259 259 260 261 261 262 261 261 261 261 261 261 262 262 262 263 263 265 265 265 267 269 269 269 268 268 270 272 274 274 273 273
254 255 256 257 257 257 257 257 257 258 258 258 259 260 261 262 262 262 262 262 262 262 262 262 262 263 263 263 264 265 266 267 268 268 267 267 268 269 271 272 274 274 274
255 254 255 256 257 257 257 257 257 258 259 259 259 260 261 262 262 262 262 262 262 262 263 263 262 262 263 263 263 264 265 267 267 267 266 267 267 268 270 271 273 275 275
255 256 256 256 257 258 259 259 259 259 260 260 260 260 260 261 262 262 262 262 262 263 264 264 263 262 262 263 263 264 266 266 266 266 266 267 268 269 270 271 273 275 276
255 257 257 257 257 258 259 260 259 259 260 260 261 261 261 261 261 262 262 263 263 264 264 264 263 263 263 263 263 264 265 265 266 266 266 267 268 269 270 271 273 275 276
255 256 257 257 257 258 259 260 260 260 260 260 261 262 262 262 261 261 262 263 263 264 264 264 263 263 263 263 263 264 264 265 266 266 266 267 268 269 270 271 273 274 275
256 256 257 257 258 259 259 259 260 260 261 261 262 262 262 262 262 262 262 263 263 263 264 264 263 263 263 264 264 264 264 264 265 266 266 267 268 269 270 272 273 273 274
257 256 257 258 259 259 259 260 260 261 262 261 262 262 262 262 262 262 262 262 263 263 264 264 264 264 264 264 264 263 264 264 265 265 266 267 268 269 270 272 273 273 274
257 257 258 258 259 259 260 260 260 261 261 261 261 262 262 262 262 262 262 263 263 263 264 265 265 264 264 264 263 263 263 264 264 264 265 266 268 269 270 271 272 273 274
258 258 258 259 259 260 260 260 260 261 260 260 260 261 262 261 261 262 263 263 263 263 263 264 265 265 265 264 263 263 263 264 264 264 265 266 268 269 270 270 272 273 274
259 259 259 259 259 259 260 261 260 260 261 260 260 261 262 262 262 262 262 263 264 263 263 264 264 264 265 264 263 263 264 263 264 264 265 266 267 269 270 270 271 272 273
258 259 259 259 259 260 260 261 260 261 262 261 260 261 262 262 262 262 263 264 263 263 263 263 263 264 265 265 264 263 263 263 263 264 265 266 268 269 270 270 271 272 272
258 260 261 260 260 261 261 261 261 261 261 261 260 261 261 261 262 262 263 263 263 263 264 264 264 264 264 265 264 264 263 263 263 264 265 267 268 269 270 271 271 272 272
259 259 260 261 263 262 261 261 261 262 263 261 260 261 261 262 262 262 263 263 264 263 263 263 264 264 264 264 265 265 265 264 264 264 266 267 268 269 270 270 271 272 272
259 259 260 262 263 263 262 262 261 261 261 261 260 261 261 261 261 262 262 263 263 263 263 264 264 264 264 265 265 265 266 266 266 265 266 267 268 269 270 270 271 271 272
260 260 261 262 263 264 264 263 262 261 261 261 261 261 261 261 261 261 262 263 263 262 262 263 263 263 264 264 266 266 267 267 268 267 266 266 268 269 269 270 271 271 272
261 261 261 262 263 263 263 263 263 261 260 260 260 260 260 260 261 260 261 262 262 262 262 262 262 263 264 265 266 267 268 269 270 269 267 267 268 268 269 270 271 271 272
262 262 262 262 262 263 263 263 262 261 261 260 260 259 260 260 259 259 261 262 262 263 262 261 261 262 264 265 267 268 269 269 270 270 269 269 268 269 269 270 270 270 271
263 263 262 262 261 262 262 262 262 262 261 261 259 259 260 260 259 259 260 260 262 262 262 262 262 263 264 265 267 268 268 269 270 270 270 269 269 269 270 270 270 270 270
263 262 262 261 261 260 260 261 261 261 260 259 259 259 260 260 260 259 259 260 262 264 264 263 264 265 265 264 266 267 269 270 270 270 271 271 270 270 271 270 270 270 270
265 264 263 261 260 260 260 261 260 260 260 259 259 260 260 260 261 261 261 262 262 263 265 265 265 266 266 265 266 267 269 270 270 271 271 272 271 271 271 271 270 270 271
265 264 264 262 260 260 260 261 260 260 260 260 260 260 260 260 261 262 262 262 263 263 265 265 265 265 266 267 268 268 269 270 270 270 271 272 272 271 271 270 270 270 271
Height
5784 5786 5787 5788 5790 5791 5793 5794 5796 5797 5799 5801 5802 5803 5805 5806 5807 5809 5810 5812 5813 5814 5815 5817 5818 5818 5819 5820 5821 5822 5823 5823 5824 5824 5824 5824 5825 5825 5825 5825 5825 5825 5825
5777 5779 5780 5782 5783 5784 5786 5788 5789 5791 5792 5794 5795 5797 5798 5799 5801 5802 5804 5805 5807 5808 5809 5810 5811 5812 5813 5814 5815 5816 5817 5817 5818 5818 5819 5819 5819 5819 5819 5820 5820 5820 5820
5769 5771 5773 5774 5776 5777 5779 5780 5782 5784 5785 5787 5788 5790 5791 5793 5794 5796 5797 5798 5800 5801 5803 5804 5804 5806 5807 5807 5808 5809 5810 5811 5811 5812 5813 5813 5813 5814 5813 5814 5814 5814 5814
5761 5763 5765 5767 5768 5770 5771 5773 5774 5776 5778 5779 5781 5783 5784 5785 5787 5788 5790 5791 5793 5794 5795 5796 5797 5798 5799 5800 5801 5802 5803 5804 5805 5805 5806 5806 5807 5807 5807 5807 5808 5808 5808
5753 5755 5757 5758 5760 5762 5763 5765 5767 5768 5770 5771 5773 5775 5776 5777 5779 5780 5782 5783 5785 5786 5787 5788 5789 5791 5792 5793 5794 5795 5796 5797 5798 5798 5798 5799 5800 5800 5800 5801 5801 5801 5801
5745 5747 5748 5750 5751 5753 5755 5756 5758 5760 5761 5763 5765 5766 5767 5769 5770 5772 5773 5775 5776 5777 5779 5780 5781 5782 5784 5785 5786 5787 5788 5789 5790 5790 5791 5791 5792 5792 5793 5793 5793 5793 5793
5735 5737 5739 5741 5742 5744 5746 5747 5749 5751 5752 5754 5755 5757 5758 5760 5761 5763 5764 5765 5767 5768 5769 5771 5772 5773 5775 5776 5777 5778 5779 5780 5781 5782 5782 5783 5784 5784 5785 5785 5785 5785 5785
5726 5728 5729 5731 5733 5735 5736 5738 5739 5741 5742 5744 5746 5747 5749 5751 5752 5753 5755 5756 5757 5758 5760 5761 5762 5764 5765 5766 5768 5769 5770 5771 5772 5773 5773 5774 5775 5775 5776 5776 5776 5776 5776
5716 5717 5719 5721 5723 5725 5726 5728 5729 5731 5733 5734 5735 5737 5739 5741 5742 5743 5744 5746 5747 5748 5749 5750 5752 5753 5755 5756 5757 5759 5760 5761 5762 5763 5764 5764 5765 5765 5766 5766 5767 5767 5767
5705 5706 5708 5710 5712 5714 5716 5717 5718 5720 5721 5723 5724 5726 5728 5730 5731 5733 5734 5735 5736 5737 5739 5740 5741 5742 5744 5745 5746 5748 5749 5750 5751 5752 5753 5754 5755 5755 5755 5756 5756 5757 5757
5693 5695 5696 5698 5700 5702 5704 5706 5707 5709 5710 5712 5713 5715 5716 5718 5719 5721 5724 5724 5725 5726 5727 5728 5729 5731 5732 5733 5735 5736 5737 5738 5739 5740 5742 5742 5743 5744 5745 5745 5745 5746 5746
5681 5683 5685 5687 5688 5690 5692 5694 5695 5697 5698 5700 5701 5703 5704 5706 5708 5709 5711 5713 5714 5714 5715 5716 5717 5719 5720 5721 5723 5724 5725 5726 5727 5729 5730 5730 5731 5732 5733 5733 5734 5734 5734
5670 5672 5673 5675 5676 5678 5680 5681 5683 5684 5686 5688 5689 5691 5692 5694 5695 5697 5698 5700 5702 5703 5703 5704 5705 5706 5707 5709 5710 5711 5713 5714 5715 5716 5717 5718 5719 5720 5721 5721 5721 5722 5722
5657 5659 5660 5662 5664 5665 5667 5669 5671 5672 5673 5675 5676 5678 5679 5681 5682 5684 5686 5687 5689 5691 5691 5692 5692 5693 5694 5696 5697 5698 5700 5701 5702 5704 5705 5706 5707 5707 5708 5708 5709 5709 5709
5643 5645 5647 5649 5651 5652 5654 5655 5657 5659 5660 5662 5663 5665 5666 5668 5669 5671 5672 5674 5676 5677 5679 5680 5680 5680 5681 5682 5684 5685 5687 5688 5689 5690 5692 5693 5694 5694 5695 5696 5696 5696 5696
5630 5631 5633 5635 5637 5639 5640 5642 5643 5645 5646 5648 5649 5651 5653 5654 5656 5658 5659 5660 5661 5662 5665 5667 5667 5668 5668 5669 5670 5671 5673 5674 5676 5677 5678 5679 5680 5681 5681 5682 5682 5682 5682
5616 5618 5619 5621 5623 5625 5626 5628 5629 5631 5632 5633 5635 5637 5639 5640 5642 5644 5645 5646 5647 5648 5651 5653 5654 5654 5655 5656 5657 5657 5659 5660 5662 5663 5665 5666 5667 5667 5668 5668 5668 5668 5668
5602 5604 5606 5607 5609 5610 5612 5613 5615 5616 5618 5619 5621 5623 5625 5626 5628 5630 5631 5632 5633 5634 5636 5638 5640 5640 5641 5642 5643 5644 5645 5646 5648 5649 5650 5651 5652 5653 5653 5654 5654 5654 5654
5588 5590 5592 5593 5595 5596 5597 5599 5600 5602 5603 5605 5606 5608 5610 5612 5614 5615 5617 5618 5619 5621 5622 5624 5625 5626 5628 5628 5629 5630 5631 5632 5633 5634 5635 5636 5637 5638 5638 5639 5639 5639 5640
5574 5576 5578 5579 5581 5582 5583 5584 5585 5587 5588 5590 5592 5594 5596 5598 5600 5601 5602 5604 5605 5606 5608 5610 5611 5613 5614 5615 5615 5617 5618 5618 5619 5619 5620 5621 5622 5623 5623 5624 5625 5625 5625
5560 5562 5564 5565 5567 5568 5569 5570 5571 5573 5574 5576 5578 5580 5581 5583 5585 5587 5588 5590 5591 5592 5594 5596 5598 5599 5600 5601 5602 5603 5603 5604 5604 5604 5605 5606 5607 5608 5608 5608 5609 5609 5610
5547 5548 5550 5551 5552 5553 5554 5555 5557 5558 5560 5562 5564 5566 5567 5569 5571 5572 5574 5576 5577 5579 5580 5582 5584 5585 5587 5587 5588 5588 5589 5590 5591 5592 5590 5591 5591 5592 5592 5593 5594 5594 5595
5533 5534 5535 5537 5538 5539 5540 5541 5543 5544 5546 5548 5550 5552 5553 5555 5557 5558 5560 5562 5563 5564 5566 5568 5569 5571 5572 5574 5574 5574 5574 5574 5575 5576 5575 5576 5576 5577 5578 5578 5578 5579 5579
5518 5520 5521 5522 5524 5525 5526 5527 5529 5530 5532 5534 5536 5538 5540 5541 5543 5544 5546 5548 5549 5551 5553 5554 5556 5557 5557 5558 5559 5559 5559 5560 5561 5561 5560 5562 5562 5563 5563 5563 5563 5563 5564
5505 5505 5506 5508 5509 5511 5512 5513 5515 5517 5519 5521 5522 5524 5526 5528 5529 5530 5532 5534 5536 5537 5538 5539 5541 5542 5543 5543 5544 5544 5545 5545 5546 5547 5546 5547 5547 5547 5548 5548 5548 5548 5548
5491 5492 5493 5494 5495 5497 5498 5499 5501 5503 5506 5507 5509 5511 5512 5514 5515 5516 5518 5520 5522 5523 5524 5525 5526 5527 5528 5529 5529 5529 5529 5530 5530 5532 5531 5531 5532 5532 5533 5534 5533 5533 5533